SCP
1 1 1 1 1 1 1 0 1 1 2 3 2 2 3 3 3 3 4 4 5 6 7 7 6 6 6 6 6 6 6 5 5 6 6 5 4 4 4 5 5 6 7 7
1 1 1 1 1 1 1 1 1 2 3 3 3 3 4 4 3 4 4 4 4 5 6 7 7 7 6 7 7 8 7 7 7 6 6 6 5 5 5 5 5 6 7 7
1 1 1 1 1 1 1 1 2 2 3 3 3 3 4 3 3 4 5 5 4 4 5 6 7 7 7 7 9 10 10 9 9 8 7 7 6 6 6 6 5 6 6 6
1 1 1 1 1 1 1 2 3 3 3 3 3 3 3 3 3 4 5 6 6 6 6 6 6 6 7 8 9 10 11 11 10 8 8 8 8 8 7 6 6 5 5 5
1 1 1 1 1 1 1 2 3 3 3 3 3 2 2 2 2 3 5 6 7 8 8 8 8 7 7 8 9 9 9 10 9 8 8 8 8 7 7 6 6 5 5 5
1 1 1 1 1 1 1 2 3 3 3 3 3 3 2 2 2 3 5 7 8 8 8 9 9 9 9 9 9 8 8 8 8 8 8 8 7 6 6 6 5 4 4 4
2 1 1 1 1 1 2 2 2 3 4 4 4 3 3 2 2 3 4 6 7 8 8 8 8 8 8 9 8 7 7 7 7 8 8 7 6 6 5 5 4 4 4 4
2 2 2 2 2 2 3 3 2 3 4 4 4 4 3 2 2 2 3 4 5 7 8 8 7 7 7 7 7 7 7 7 7 7 6 5 5 5 5 4 4 4 4 4
2 2 3 4 5 5 4 3 3 3 3 4 3 3 2 2 2 2 2 3 4 5 6 7 7 7 8 9 10 9 8 8 7 6 5 4 5 5 4 4 3 3 3 3
2 2 3 4 6 6 5 3 2 2 3 3 3 2 2 2 2 2 2 2 3 4 4 5 6 7 9 11 11 10 8 6 5 4 4 4 4 4 3 2 2 2 3 3
1 2 2 3 4 4 3 3 2 2 2 2 2 2 2 1 1 1 1 1 2 2 2 2 2 4 5 6 6 6 5 4 3 3 3 3 3 2 2 1 1 1 2 2
1 1 1 2 2 2 2 3 2 2 2 2 2 2 2 2 2 1 1 1 1 1 1 1 1 1 1 2 2 2 2 1 1 1 1 1 1 1 1 1 1 0 1 1
1 1 1 2 2 2 3 3 3 2 1 1 1 1 1 1 1 1 1 1 1 0 0 0 0 0 1 1 1 1 1 1 0 1 1 1 1 0 0 0 0 0 0 0
1 1 1 1 2 2 2 2 2 1 1 1 1 1 1 1 1 1 1 1 0 0 0 0 0 0 0 1 1 0 0 0 0 0 0 0 0 0 0 0 0 0 0 0
1 1 1 1 1 1 1 1 1 1 0 0 0 0 0 0 1 1 1 0 0 0 0 0 0 0 0 1 1 0 0 0 0 0 0 0 0 0 0 0 0 0 0 0
1 1 1 1 1 1 1 1 0 0 0 0 0 0 0 0 0 0 0 0 0 0 0 0 0 0 0 1 1 0 0 0 0 0 0 0 0 0 0 0 0 0 0 0
1 1 1 1 1 1 1 0 0 0 0 0 0 0 0 0 0 0 0 0 0 0 0 0 0 0 0 0 0 0 0 0 0 0 0 0 0 0 0 0 0 0 0 0
1 1 1 1 1 0 0 0 0 0 0 0 0 0 0 0 0 0 0 0 0 0 0 0 0 0 0 0 0 0 0 0 0 0 0 0 0 0 0 0 0 0 0 0
0 0 0 0 0 0 0 0 0 0 0 0 0 0 0 0 0 0 0 0 0 0 0 0 0 0 0 0 0 0 0 0 0 0 0 0 0 0 0 0 0 0 0 0
0 0 0 0 0 0 0 0 0 0 0 0 0 0 0 0 0 0 0 0 0 0 0 0 0 0 0 0 0 0 0 0 0 0 0 0 0 0 0 0 0 0 0 1
0 0 0 0 0 0 0 0 0 0 0 0 0 0 0 0 0 0 0 0 0 0 0 0 0 0 0 0 0 0 0 0 0 0 0 0 0 0 0 0 0 0 1 1
0 0 0 0 0 0 0 0 0 0 0 0 0 0 0 0 0 0 0 0 0 0 0 0 0 0 0 0 0 0 0 0 0 0 0 0 0 0 0 0 0 0 1 1
0 0 0 0 0 0 0 0 0 0 0 0 0 0 0 0 0 0 0 0 0 0 0 0 0 0 0 0 0 0 0 0 0 0 0 0 0 0 0 0 0 0 1 1
0 0 0 0 0 0 0 0 0 0 0 0 0 0 0 0 0 0 0 0 0 0 0 0 0 0 0 0 0 0 0 0 0 0 0 0 0 0 0 0 0 0 0 0
0 0 0 0 0 0 0 0 0 0 0 0 0 0 0 0 0 0 0 0 0 0 0 0 0 0 0 0 0 0 0 0 0 0 0 0 0 0 0 0 0 0 0 0
0 0 0 0 0 0 0 0 0 0 0 0 0 0 0 0 0 0 0 0 0 0 0 0 0 0 0 0 0 0 0 0 0 0 0 0 0 0 0 0 0 0 0 0
0 0 0 0 0 0 0 0 0 0 0 0 0 0 0 0 0 0 0 0 0 0 0 0 0 0 0 0 0 0 0 0 0 0 0 0 0 0 0 0 0 0 0 0
Wind_Speed
11 7 9 10 12 13 13 12 10 6 2 1 4 3 3 4 5 6 7 7 8 8 8 7 7 8 10 10 10 10 11 11 11 10 9 8 8 8 8 8 10 8 8 8
12 10 11 13 15 16 15 12 9 4 2 2 5 6 5 6 5 4 5 4 5 6 7 7 7 7 7 7 8 9 10 10 10 10 10 10 9 9 9 8 8 8 8 8
11 9 10 12 9 9 8 6 4 2 5 7 7 7 7 6 6 6 4 3 3 3 4 5 6 6 6 5 6 7 7 7 7 8 9 9 11 10 9 8 8 7 8 7
9 8 11 4 2 2 2 1 2 6 9 10 8 8 8 8 9 8 8 6 4 3 3 3 2 4 4 5 4 5 6 6 6 7 7 7 7 7 7 7 7 7 6 7
7 8 7 4 3 1 1 3 5 7 7 9 11 12 10 10 10 10 10 9 8 6 5 5 4 3 4 3 3 3 2 2 3 4 5 6 6 5 5 5 5 6 6 6
7 6 5 1 3 3 1 4 5 6 6 6 7 7 7 9 10 11 11 10 10 10 10 9 8 7 6 5 5 3 2 2 2 1 2 3 4 4 3 4 5 5 6 7
8 4 1 2 1 2 2 4 5 7 9 8 10 10 10 11 11 11 11 11 11 11 11 10 9 9 8 8 6 4 4 4 4 3 2 1 1 2 2 3 4 5 5 5
5 4 1 2 2 3 6 6 6 9 12 14 15 14 13 12 11 11 11 11 11 10 11 10 10 9 9 8 7 6 5 5 5 4 2 1 0 1 2 3 3 4 5 5
2 2 5 6 8 7 8 9 8 10 13 14 15 14 13 12 11 11 11 11 10 11 11 11 11 10 9 8 7 7 7 6 5 5 4 3 2 1 1 2 3 3 3 4
2 5 5 6 8 8 8 9 11 12 13 14 14 14 13 11 11 11 11 10 10 10 10 10 10 9 8 7 6 6 6 5 4 3 2 2 1 1 1 1 2 2 2 3
3 3 5 6 8 9 10 12 13 14 15 14 15 14 13 11 10 10 10 9 9 9 9 9 8 8 7 7 6 6 5 4 4 3 2 2 1 1 1 1 0 1 2 2
2 2 4 6 8 11 12 13 14 16 15 14 14 13 12 11 9 9 9 8 8 9 9 8 8 8 8 7 7 6 5 4 3 2 2 1 1 1 1 2 3 4 4 3
5 6 8 10 11 13 15 15 15 15 14 14 13 12 11 10 8 8 8 8 8 7 6 6 6 6 6 6 6 5 5 4 4 4 4 3 3 2 2 3 6 7 7 7
7 9 12 12 13 14 16 16 16 15 13 12 11 10 10 9 8 8 7 7 6 6 5 6 6 6 6 5 5 5 5 4 4 4 4 4 4 4 4 4 3 3 6 9
10 13 14 14 14 14 14 14 14 13 12 11 10 9 9 8 7 6 6 6 5 5 6 6 6 5 5 6 5 6 6 5 4 4 5 5 5 5 5 4 4 4 4 3
13 15 14 14 14 13 13 13 12 11 10 9 9 8 7 6 5 5 5 4 4 5 5 5 5 5 5 6 6 5 5 6 6 6 6 6 5 6 6 5 5 5 5 5
13 12 12 13 12 12 11 10 10 9 8 7 6 6 6 6 6 5 5 5 4 4 4 4 5 6 6 6 7 7 7 7 7 7 6 5 5 6 6 6 6 6 5 5
13 12 12 12 11 11 10 9 8 7 6 6 6 6 6 6 6 6 5 5 4 3 4 4 6 6 6 6 6 7 8 8 7 7 7 6 6 6 7 7 7 8 6 7
14 14 13 12 10 9 7 7 6 6 5 5 5 5 5 5 5 5 5 5 4 3 4 5 5 6 6 7 8 6 8 9 8 7 7 7 7 8 7 7 8 8 8 8
12 11 10 9 8 7 6 5 4 3 3 3 3 3 3 4 4 4 5 4 3 4 5 5 6 6 7 8 9 8 9 9 9 8 8 8 8 8 8 8 8 8 8 7
8 8 7 7 5 4 4 3 2 2 3 3 3 3 3 4 4 4 4 3 4 5 6 5 4 6 7 9 10 9 9 8 8 8 8 8 8 8 8 9 9 9 9 8
6 5 4 4 3 3 3 2 3 3 3 3 4 4 4 4 5 4 3 3 3 5 5 5 5 7 8 10 9 8 8 8 8 8 7 8 8 8 8 8 8 8 8 8
6 5 4 4 3 3 2 2 2 2 3 3 4 4 4 4 4 5 3 3 4 4 5 5 5 6 9 8 7 7 8 8 8 8 8 7 7 8 8 9 8 8 8 8
4 3 3 3 3 3 3 3 3 2 3 3 3 3 3 3 3 3 3 3 3 3 3 3 3 6 8 6 6 6 6 7 8 8 8 8 7 7 7 8 8 8 8 10
3 3 3 3 3 3 3 3 3 2 3 2 3 3 3 3 4 4 4 3 3 4 3 2 2 5 6 6 6 6 6 6 7 7 7 7 8 8 7 8 8 8 8 8
2 3 3 3 3 3 3 3 3 3 4 4 4 4 4 3 4 3 3 3 4 3 4 3 3 4 5 5 6 6 6 6 6 6 7 7 7 7 7 7 9 7 7 7
2 1 1 2 3 3 4 4 4 4 4 4 5 5 4 4 4 4 4 3 3 3 4 4 4 4 5 5 5 5 5 6 6 6 7 6 6 6 6 8 6 6 7 7
Wind_Direction
252 194 173 204 236 255 258 261 266 264 258 197 161 149 112 116 124 136 145 158 163 167 167 166 177 183 181 181 183 186 186 190 192 192 193 196 194 191 191 193 200 200 201 204
251 232 213 213 218 230 240 248 254 226 155 107 102 101 81 72 75 94 118 138 151 158 159 165 180 183 182 185 184 182 186 192 191 189 192 197 195 192 190 194 201 195 201 208
251 251 254 240 235 240 251 259 268 213 123 103 87 85 76 68 63 62 66 95 113 129 143 163 172 171 175 178 182 184 189 195 189 189 195 197 198 195 195 194 198 203 203 209
255 248 249 258 315 305 281 316 67 98 106 107 105 88 66 61 57 50 44 45 58 83 97 111 135 161 162 167 165 171 177 186 183 188 195 195 200 197 196 194 198 206 210 214
247 237 252 293 359 43 146 62 72 96 106 118 123 106 75 60 61 56 49 42 44 50 68 66 67 86 108 122 128 132 143 164 181 192 186 185 195 197 192 191 195 201 209 214
238 229 227 247 349 337 95 88 49 82 96 107 118 102 81 64 60 56 51 45 43 45 49 51 47 57 74 75 65 63 69 80 80 104 179 186 187 191 193 193 200 208 216 218
235 229 184 67 323 267 162 102 61 77 81 86 78 91 98 83 68 61 59 56 52 51 49 44 46 57 61 58 51 43 54 60 59 50 53 72 136 158 179 205 213 224 234 233
236 223 206 9 68 60 92 92 78 85 92 94 95 95 92 85 77 68 63 60 62 59 54 46 48 57 57 49 38 35 47 59 56 51 40 22 131 174 198 216 221 229 240 245
7 86 81 70 87 104 106 103 100 96 99 102 101 99 94 87 79 71 65 59 59 65 61 52 47 52 52 36 30 36 41 43 49 48 38 24 19 7 259 247 248 247 246 253
79 76 75 85 96 93 96 100 97 96 100 102 101 97 90 83 76 70 65 61 58 61 61 56 50 49 49 42 31 32 34 30 30 42 26 36 38 5 343 326 308 308 313 308
104 108 82 73 92 97 97 96 95 93 94 96 97 95 92 84 76 71 67 62 59 58 58 56 51 46 40 33 33 35 31 27 10 10 17 28 16 2 4 32 32 297 323 325
98 107 114 107 97 100 98 96 93 93 90 87 88 90 88 82 77 73 68 62 60 56 53 51 49 44 36 30 26 22 18 9 356 355 1 332 307 297 291 268 228 225 228 239
86 91 102 97 90 94 97 96 94 92 92 91 87 86 86 84 78 73 68 62 58 55 52 50 49 44 35 26 19 14 5 357 347 347 343 333 330 320 298 248 237 244 244 244
85 95 95 90 90 91 95 96 94 91 87 86 86 84 81 77 72 66 59 54 52 46 39 37 37 34 22 17 12 359 341 344 328 330 332 320 310 303 297 291 279 261 242 240
81 92 95 93 93 92 94 95 92 87 82 77 75 71 68 65 60 59 54 47 38 33 32 28 23 19 9 360 356 340 329 329 337 330 312 303 303 305 304 306 306 306 307 274
92 94 98 97 95 93 91 88 86 83 78 72 68 65 61 61 55 48 40 37 29 23 21 15 9 6 358 350 339 318 307 302 302 301 297 301 310 312 313 316 313 309 309 317
103 102 102 98 93 89 85 84 83 82 80 73 67 60 51 41 34 32 22 20 18 9 9 13 13 1 346 342 333 322 319 316 304 297 304 314 317 316 315 311 310 313 316 323
96 96 96 94 89 85 81 78 75 69 62 55 54 46 35 28 22 16 6 356 356 9 11 20 14 345 338 351 340 326 317 315 316 319 323 326 324 317 311 312 316 318 319 319
89 90 89 90 91 92 88 82 75 68 59 49 42 39 34 26 14 0 351 339 343 14 22 28 360 333 344 12 349 321 317 320 322 324 325 324 318 322 325 326 326 325 324 323
90 92 92 90 84 81 80 75 72 69 58 46 37 30 21 12 359 348 340 342 18 21 3 1 343 345 355 5 342 319 318 322 326 329 330 330 332 333 332 330 326 325 325 324
91 91 91 90 84 76 69 58 50 43 41 33 17 1 355 347 335 331 321 344 52 19 344 341 7 11 4 345 322 318 323 329 331 331 332 336 338 337 337 336 334 331 330 330
88 86 83 82 79 67 52 29 25 27 27 4 350 346 340 333 329 328 338 18 45 20 345 357 17 23 358 332 323 327 335 339 339 339 340 341 338 336 334 334 333 332 331 328
63 58 50 42 33 25 9 358 9 2 345 335 330 329 328 330 325 323 343 34 32 9 348 10 22 1 338 324 330 339 343 344 343 342 342 343 341 339 338 336 334 333 331 330
48 37 25 6 349 336 335 349 350 334 321 319 324 336 332 321 330 349 16 71 50 3 356 38 9 336 319 323 339 348 354 354 353 350 346 343 343 342 340 337 336 335 334 333
12 344 339 342 325 328 341 329 319 323 318 318 326 340 341 345 347 356 356 12 20 343 348 26 343 326 329 348 358 1 2 2 355 344 342 344 345 344 343 340 339 335 332 331
331 323 352 329 329 322 322 333 341 345 338 342 349 356 351 349 347 341 337 356 5 354 352 3 359 347 355 3 9 5 359 354 353 353 351 346 345 343 339 336 334 334 332 335
283 291 277 300 338 349 350 350 344 342 346 350 345 337 335 346 352 349 354 3 1 360 7 8 12 15 9 11 13 8 4 2 360 354 350 349 348 341 338 336 336 337 337 343